,,Stat1,,Stat2,,Stat3,,Stat4,,Wind1,,Wind1,
time,status,PR1M_SUM,status,RH1M_AVG,status,SR1M_AVG,status,TA1M_AVG,status,W1dAve1m,status,W1sAve1m,
1999-10-13, 00:01:00,VALID,0.2,VALID,99.2182,VALID,0,VALID,19.7027,VALID,128,VALID,0,
1999-10-13, 00:02:00,VALID,0,VALID,99.2093,VALID,0,VALID,19.6957,VALID,129,VALID,0,
1999-10-13, 00:03:00,VALID,0,VALID,99.1953,VALID,0,VALID,19.6885,VALID,213,VALID,0,
1999-10-13, 00:04:00,VALID,0,VALID,99.1546,VALID,0.0169808,VALID,19.6765,VALID,135,VALID,0,
1999-10-13, 00:05:00,VALID,0,VALID,99.1585,VALID,0,VALID,19.6696,VALID,107,VALID,0,
1999-10-13, 00:06:00,VALID,0,VALID,99.1165,VALID,0.0169808,VALID,19.6474,VALID,95,VALID,1.17548,
1999-10-13, 00:07:00,VALID,0,VALID,99.1267,VALID,0,VALID,19.6375,VALID,94,VALID,2.01204,
1999-10-13, 00:08:00,VALID,0,VALID,99.0555,VALID,0,VALID,19.6181,VALID,106,VALID,1.6459,
1999-10-13, 00:09:00,VALID,0,VALID,98.8736,VALID,0.0169808,VALID,19.5342,VALID,93,VALID,2.12812,
1999-10-13, 00:10:00,VALID,0,VALID,98.8762,VALID,0,VALID,19.5046,VALID,93,VALID,1.23532,
1999-10-13, 00:11:00,VALID,0,VALID,98.9703,VALID,0,VALID,19.521,VALID,96,VALID,1.41004,
1999-10-13, 00:12:01,VALID,0,VALID,98.6613,VALID,0,VALID,19.4566,VALID,65,VALID,1.25326,
1999-10-13, 00:13:00,VALID,0,VALID,98.7121,VALID,0.0169808,VALID,19.4531,VALID,100,VALID,1.56908,
1999-10-13, 00:14:00,VALID,0,VALID,98.5837,VALID,0.0169808,VALID,19.4342,VALID,57,VALID,1.16809,
1999-10-13, 00:15:00,VALID,0,VALID,98.4972,VALID,0,VALID,19.4081,VALID,93,VALID,1.66466,
1999-10-13, 00:16:00,VALID,0,VALID,98.632,VALID,0.0169808,VALID,19.3981,VALID,101,VALID,1.30722,
1999-10-13, 00:17:00,VALID,0,VALID,98.6918,VALID,0.0169808,VALID,19.3986,VALID,93,VALID,1.68113,
1999-10-13, 00:18:00,VALID,0,VALID,98.7287,VALID,0,VALID,19.3688,VALID,89,VALID,1.60352,
1999-10-13, 00:19:00,VALID,0,VALID,98.7299,VALID,0,VALID,19.3695,VALID,85,VALID,0.89597,
1999-10-13, 00:20:00,VALID,0,VALID,98.6473,VALID,0,VALID,19.3506,VALID,98,VALID,1.03539,
1999-10-13, 00:21:00,VALID,0,VALID,98.6409,VALID,0,VALID,19.33,VALID,75,VALID,1.2207,
1999-10-13, 00:22:00,VALID,0,VALID,98.6256,VALID,0,VALID,19.324,VALID,278,VALID,0.503005,
1999-10-13, 00:23:01,VALID,0,VALID,98.6358,VALID,0.0169808,VALID,19.3205,VALID,86,VALID,1.22296,
1999-10-13, 00:24:00,VALID,0,VALID,98.5989,VALID,0,VALID,19.3014,VALID,97,VALID,1.09743,
1999-10-13, 00:25:00,VALID,0,VALID,98.5977,VALID,0,VALID,19.2951,VALID,107,VALID,1.21135,
1999-10-13, 00:26:00,VALID,0,VALID,98.6218,VALID,0.0169808,VALID,19.2857,VALID,99,VALID,1.97837,
1999-10-13, 00:27:00,VALID,0,VALID,98.7401,VALID,0,VALID,19.2854,VALID,45,VALID,0.719383,
1999-10-13, 00:28:00,VALID,0,VALID,98.5608,VALID,-0.0169808,VALID,19.2529,VALID,282,VALID,0.310811,
1999-10-13, 00:29:00,VALID,0,VALID,98.5201,VALID,0,VALID,19.2302,VALID,114,VALID,1.15848,
1999-10-13, 00:30:00,VALID,0,VALID,98.6167,VALID,0,VALID,19.2466,VALID,52,VALID,0.77983,
1999-10-13, 00:31:00,VALID,0,VALID,98.6981,VALID,-0.0169808,VALID,19.2496,VALID,98,VALID,1.06964,
1999-10-13, 00:32:00,VALID,0,VALID,98.7859,VALID,-0.0849042,VALID,19.274,VALID,98,VALID,1.0076,
1999-10-13, 00:33:00,VALID,0,VALID,98.8367,VALID,-0.101885,VALID,19.273,VALID,102,VALID,0.94778,
1999-10-13, 00:34:01,VALID,0,VALID,98.7375,VALID,-0.0849042,VALID,19.2605,VALID,98,VALID,1.66501,
1999-10-13, 00:35:00,VALID,0,VALID,98.7019,VALID,-0.0849042,VALID,19.2545,VALID,93,VALID,1.96615,
1999-10-13, 00:36:00,VALID,0,VALID,98.6765,VALID,-0.101885,VALID,19.2252,VALID,93,VALID,2.2443,
1999-10-13, 00:37:00,VALID,0,VALID,98.5672,VALID,-0.101885,VALID,19.1894,VALID,83,VALID,2.06044,
1999-10-13, 00:38:00,VALID,0,VALID,98.482,VALID,-0.0849042,VALID,19.1608,VALID,93,VALID,2.90538,
1999-10-13, 00:39:00,VALID,0,VALID,98.3319,VALID,-0.101885,VALID,19.1508,VALID,90,VALID,2.4523,
1999-10-13, 00:40:00,VALID,0,VALID,98.337,VALID,-0.101885,VALID,19.157,VALID,115,VALID,1.07238,
1999-10-13, 00:41:00,VALID,0,VALID,98.159,VALID,-0.118866,VALID,19.1316,VALID,110,VALID,1.32682,
1999-10-13, 00:42:00,VALID,0,VALID,98.1819,VALID,-0.101885,VALID,19.1388,VALID,87,VALID,1.73357,
1999-10-13, 00:43:00,VALID,0,VALID,98.1984,VALID,-0.101885,VALID,19.1254,VALID,89,VALID,1.79407,
1999-10-13, 00:44:00,VALID,0,VALID,98.192,VALID,-0.118866,VALID,19.109,VALID,103,VALID,1.45818,
1999-10-13, 00:45:01,VALID,0,VALID,98.1183,VALID,-0.101885,VALID,19.0931,VALID,106,VALID,1.93092,
1999-10-13, 00:46:00,VALID,0,VALID,98.2518,VALID,-0.0849042,VALID,19.0993,VALID,98,VALID,2.09555,
1999-10-13, 00:47:00,VALID,0,VALID,98.2365,VALID,-0.0339617,VALID,19.0787,VALID,105,VALID,0.887669,
1999-10-13, 00:48:00,VALID,0,VALID,98.1513,VALID,0,VALID,19.0526,VALID,137,VALID,0.730152,
1999-10-13, 00:49:00,VALID,0,VALID,98.1513,VALID,0,VALID,19.0531,VALID,96,VALID,1.13862,
1999-10-13, 00:50:00,VALID,0,VALID,98.2175,VALID,-0.0169808,VALID,19.0434,VALID,72,VALID,0.909801,
1999-10-13, 00:51:00,VALID,0,VALID,98.2442,VALID,0,VALID,19.0401,VALID,106,VALID,0.684152,
1999-10-13, 00:52:00,VALID,0,VALID,98.3243,VALID,0,VALID,19.0401,VALID,94,VALID,1.19466,
1999-10-13, 00:53:00,VALID,0,VALID,98.3446,VALID,0.0169808,VALID,19.0235,VALID,91,VALID,1.66036,
1999-10-13, 00:54:00,VALID,0,VALID,98.3167,VALID,0,VALID,19.0177,VALID,75,VALID,1.38021,
1999-10-13, 00:55:01,VALID,0,VALID,98.1895,VALID,-0.0169808,VALID,18.9844,VALID,86,VALID,2.04026,
1999-10-13, 00:56:01,VALID,0,VALID,98.2264,VALID,0.0169808,VALID,18.9916,VALID,97,VALID,1.66786,
1999-10-13, 00:57:00,VALID,0,VALID,98.2454,VALID,0,VALID,18.9884,VALID,93,VALID,2.4009,
1999-10-13, 00:58:00,VALID,0,VALID,98.2963,VALID,0.0169808,VALID,18.9881,VALID,101,VALID,1.45443,
1999-10-13, 00:59:00,VALID,0,VALID,98.1857,VALID,0,VALID,18.9553,VALID,68,VALID,0.995271,
1999-10-13, 01:00:00,VALID,0,VALID,98.0522,VALID,0,VALID,18.969,VALID,205,VALID,0.169118,
1999-10-13, 01:01:00,VALID,0,VALID,98.0305,VALID,0.0169808,VALID,18.9787,VALID,173,VALID,0.592448,
1999-10-13, 01:02:00,VALID,0,VALID,98.1526,VALID,0,VALID,18.9755,VALID,93,VALID,1.94631,
1999-10-13, 01:03:00,VALID,0,VALID,98.3815,VALID,0,VALID,18.9921,VALID,99,VALID,1.40765,
1999-10-13, 01:04:00,VALID,0,VALID,98.4247,VALID,0,VALID,18.9852,VALID,99,VALID,1.33203,
1999-10-13, 01:05:00,VALID,0,VALID,98.4336,VALID,0,VALID,18.9623,VALID,95,VALID,1.59067,
1999-10-13, 01:06:00,VALID,0,VALID,98.4642,VALID,0,VALID,18.966,VALID,94,VALID,1.67849,
1999-10-13, 01:07:01,VALID,0,VALID,98.426,VALID,-0.0169808,VALID,18.966,VALID,98,VALID,0.967694,
1999-10-13, 01:08:00,VALID,0,VALID,98.3777,VALID,-0.0339617,VALID,18.9632,VALID,94,VALID,1.59502,
1999-10-13, 01:09:00,VALID,0,VALID,98.4286,VALID,0,VALID,18.9461,VALID,94,VALID,1.08065,
1999-10-13, 01:10:00,VALID,0,VALID,98.5176,VALID,0,VALID,18.9625,VALID,95,VALID,0.930161,
1999-10-13, 01:11:00,VALID,0,VALID,98.5405,VALID,0,VALID,18.9725,VALID,107,VALID,0.780357,
1999-10-13, 01:12:00,VALID,0,VALID,98.4095,VALID,0,VALID,18.9329,VALID,75,VALID,1.53472,
1999-10-13, 01:13:00,VALID,0,VALID,98.3065,VALID,0,VALID,18.9237,VALID,80,VALID,1.48766,
1999-10-13, 01:14:00,VALID,0,VALID,98.3815,VALID,0,VALID,18.8946,VALID,70,VALID,1.54072,
1999-10-13, 01:15:00,VALID,0,VALID,98.4082,VALID,0,VALID,18.859,VALID,86,VALID,1.82492,
1999-10-13, 01:16:00,VALID,0,VALID,98.5888,VALID,0,VALID,18.8782,VALID,86,VALID,1.53843,
1999-10-13, 01:17:00,VALID,0,VALID,98.6015,VALID,0,VALID,18.869,VALID,76,VALID,1.25452,
1999-10-13, 01:18:00,VALID,0,VALID,98.6969,VALID,0,VALID,18.8724,VALID,98,VALID,1.39475,
1999-10-13, 01:19:00,VALID,0,VALID,98.6244,VALID,0,VALID,18.8426,VALID,51,VALID,1.01789,
1999-10-13, 01:20:00,VALID,0,VALID,98.6676,VALID,0,VALID,18.8563,VALID,117,VALID,0.718061,
1999-10-13, 01:21:00,VALID,0,VALID,98.7045,VALID,-0.0339617,VALID,18.8526,VALID,44,VALID,1.00564,
1999-10-13, 01:22:00,VALID,0,VALID,98.6549,VALID,0,VALID,18.8369,VALID,76,VALID,0.678486,
1999-10-13, 01:23:00,VALID,0,VALID,98.7821,VALID,-0.0169808,VALID,18.8429,VALID,86,VALID,1.04127,
1999-10-13, 01:24:00,VALID,0,VALID,98.8266,VALID,-0.0169808,VALID,18.8632,VALID,92,VALID,0.953814,
1999-10-13, 01:25:00,VALID,0,VALID,98.7693,VALID,-0.0169808,VALID,18.8496,VALID,43,VALID,0.743832,
1999-10-13, 01:26:00,VALID,0,VALID,98.7897,VALID,0,VALID,18.8595,VALID,88,VALID,0.883213,
1999-10-13, 01:27:00,VALID,0,VALID,98.749,VALID,0,VALID,18.86,VALID,9,VALID,0.525549,
1999-10-13, 01:28:00,VALID,0,VALID,98.6943,VALID,-0.0169808,VALID,18.8403,VALID,86,VALID,0.840372,
1999-10-13, 01:29:00,VALID,0,VALID,98.8164,VALID,0,VALID,18.8593,VALID,71,VALID,0.107813,
1999-10-13, 01:30:00,VALID,0,VALID,98.7935,VALID,0,VALID,18.866,VALID,103,VALID,0.363873,
1999-10-13, 01:31:00,VALID,0,VALID,98.7541,VALID,-0.0169808,VALID,18.8498,VALID,99,VALID,0.520982,
1999-10-13, 01:32:00,VALID,0,VALID,98.8113,VALID,0,VALID,18.856,VALID,92,VALID,1.25434,
1999-10-13, 01:33:00,VALID,0,VALID,98.8164,VALID,-0.0169808,VALID,18.85,VALID,105,VALID,1.0956,
1999-10-13, 01:34:00,VALID,0,VALID,98.8355,VALID,-0.0169808,VALID,18.8302,VALID,85,VALID,1.0187,
1999-10-13, 01:35:00,VALID,0,VALID,98.9664,VALID,-0.0339617,VALID,18.8764,VALID,74,VALID,1.04768,
1999-10-13, 01:36:00,VALID,0,VALID,98.9461,VALID,-0.0509425,VALID,18.8533,VALID,83,VALID,0.425465,
1999-10-13, 01:37:00,VALID,0,VALID,98.955,VALID,-0.0339617,VALID,18.8431,VALID,75,VALID,0.224301,
1999-10-13, 01:38:01,VALID,0,VALID,99.0287,VALID,-0.0169808,VALID,18.869,VALID,89,VALID,0,
1999-10-13, 01:39:00,VALID,0,VALID,99.0707,VALID,-0.0339617,VALID,18.872,VALID,164,VALID,0,
1999-10-13, 01:40:00,VALID,0.2,VALID,99.0872,VALID,0,VALID,18.8757,VALID,197,VALID,0,
1999-10-13, 01:41:00,VALID,0,VALID,99.1076,VALID,-0.0169808,VALID,18.8722,VALID,129,VALID,0,
1999-10-13, 01:42:00,VALID,0,VALID,99.105,VALID,-0.0339617,VALID,18.8762,VALID,118,VALID,0.514824,
1999-10-13, 01:43:00,VALID,0,VALID,99.1508,VALID,-0.0169808,VALID,18.8655,VALID,93,VALID,0.1877,
1999-10-13, 01:44:00,VALID,0,VALID,99.1419,VALID,-0.0339617,VALID,18.853,VALID,34,VALID,0.71898,
1999-10-13, 01:45:00,VALID,0,VALID,99.1419,VALID,-0.0509425,VALID,18.8436,VALID,20,VALID,0.0956003,
1999-10-13, 01:46:00,VALID,0,VALID,99.1991,VALID,-0.0169808,VALID,18.863,VALID,117,VALID,0.241787,
1999-10-13, 01:47:00,VALID,0,VALID,99.2144,VALID,-0.0339617,VALID,18.8597,VALID,107,VALID,0.473395,
1999-10-13, 01:48:00,VALID,0,VALID,99.2843,VALID,-0.0509425,VALID,18.8729,VALID,93,VALID,1.00549,
1999-10-13, 01:49:00,VALID,0,VALID,99.3746,VALID,-0.0169808,VALID,18.9113,VALID,98,VALID,0.962723,
1999-10-13, 01:50:01,VALID,0,VALID,99.4153,VALID,-0.0169808,VALID,18.9371,VALID,107,VALID,1.04096,
1999-10-13, 01:51:00,VALID,0,VALID,99.4102,VALID,-0.0169808,VALID,18.9401,VALID,124,VALID,0.713393,
1999-10-13, 01:52:00,VALID,0,VALID,99.4077,VALID,-0.0339617,VALID,18.9438,VALID,117,VALID,0.779731,
1999-10-13, 01:53:00,VALID,0,VALID,99.3543,VALID,-0.0169808,VALID,18.9344,VALID,110,VALID,0.760896,
1999-10-13, 01:54:00,VALID,0,VALID,99.3479,VALID,-0.0169808,VALID,18.9277,VALID,105,VALID,1.22775,
1999-10-13, 01:55:00,VALID,0,VALID,99.3136,VALID,-0.0679233,VALID,18.9018,VALID,68,VALID,0.970553,
1999-10-13, 01:56:00,VALID,0,VALID,99.264,VALID,0,VALID,18.8692,VALID,105,VALID,0.539485,
1999-10-13, 01:57:00,VALID,0,VALID,99.2843,VALID,-0.0509425,VALID,18.8759,VALID,112,VALID,0.354441,
1999-10-13, 01:58:00,VALID,0,VALID,99.3454,VALID,0,VALID,18.8884,VALID,109,VALID,1.04709,
1999-10-13, 01:59:00,VALID,0,VALID,99.3823,VALID,0,VALID,18.9145,VALID,109,VALID,0.556332,
1999-10-13, 02:00:00,VALID,0,VALID,99.4179,VALID,-0.0509425,VALID,18.9145,VALID,112,VALID,0.62477,
1999-10-13, 02:01:01,VALID,0,VALID,99.3708,VALID,-0.0339617,VALID,18.918,VALID,81,VALID,0.87066,
1999-10-13, 02:02:00,VALID,0,VALID,99.2309,VALID,0,VALID,18.8593,VALID,51,VALID,0.595753,
1999-10-13, 02:03:00,VALID,0,VALID,99.2971,VALID,0,VALID,18.8556,VALID,297,VALID,0.232973,
1999-10-13, 02:04:00,VALID,0,VALID,99.3136,VALID,0.0339617,VALID,18.8317,VALID,107,VALID,1.01126,
1999-10-13, 02:05:00,VALID,0,VALID,99.3466,VALID,0.0169808,VALID,18.8452,VALID,79,VALID,0.925576,
1999-10-13, 02:06:00,VALID,0,VALID,99.3708,VALID,0,VALID,18.8392,VALID,92,VALID,0.723357,
1999-10-13, 02:07:00,VALID,0,VALID,99.3759,VALID,0.0169808,VALID,18.8491,VALID,110,VALID,1.15034,
1999-10-13, 02:08:00,VALID,0,VALID,99.3746,VALID,0.0169808,VALID,18.8292,VALID,109,VALID,0.931588,
1999-10-13, 02:09:00,VALID,0,VALID,99.3988,VALID,0,VALID,18.8228,VALID,87,VALID,0.888616,
1999-10-13, 02:10:00,VALID,0,VALID,99.4395,VALID,0.0169808,VALID,18.8426,VALID,104,VALID,0.878314,
1999-10-13, 02:11:00,VALID,0,VALID,99.4853,VALID,0.0679233,VALID,18.8387,VALID,81,VALID,0.912723,
1999-10-13, 02:12:00,VALID,0,VALID,99.5081,VALID,0.0169808,VALID,18.8486,VALID,107,VALID,0.967448,
1999-10-13, 02:13:00,VALID,0,VALID,99.5641,VALID,0.0339617,VALID,18.8715,VALID,83,VALID,0.560855,
1999-10-13, 02:14:00,VALID,0,VALID,99.5577,VALID,0.0509425,VALID,18.871,VALID,103,VALID,0.71946,
1999-10-13, 02:15:00,VALID,0,VALID,99.5272,VALID,0.0509425,VALID,18.8646,VALID,108,VALID,0.626803,
1999-10-13, 02:16:00,VALID,0,VALID,99.517,VALID,0.0509425,VALID,18.8516,VALID,91,VALID,0.564189,
1999-10-13, 02:17:00,VALID,0,VALID,99.5412,VALID,-0.0339617,VALID,18.8429,VALID,103,VALID,1.15687,
1999-10-13, 02:18:00,VALID,0,VALID,99.5488,VALID,-0.0679233,VALID,18.8466,VALID,101,VALID,0.570095,
1999-10-13, 02:19:00,VALID,0,VALID,99.5145,VALID,-0.0849042,VALID,18.8373,VALID,20,VALID,0.337377,
1999-10-13, 02:20:00,VALID,0,VALID,99.5654,VALID,-0.0509425,VALID,18.8269,VALID,117,VALID,0.414752,
1999-10-13, 02:21:00,VALID,0,VALID,99.5259,VALID,-0.0849042,VALID,18.8304,VALID,163,VALID,0.238715,
1999-10-13, 02:22:00,VALID,0,VALID,99.5145,VALID,-0.0509425,VALID,18.811,VALID,175,VALID,0.00340545,
1999-10-13, 02:23:01,VALID,0,VALID,99.4789,VALID,-0.0679233,VALID,18.7951,VALID,175,VALID,0.000801282,
1999-10-13, 02:24:00,VALID,0,VALID,99.4789,VALID,-0.0849042,VALID,18.7595,VALID,116,VALID,0.294807,
1999-10-13, 02:25:00,VALID,0,VALID,99.5348,VALID,-0.0849042,VALID,18.7523,VALID,117,VALID,0.315378,
1999-10-13, 02:26:00,VALID,0,VALID,99.559,VALID,-0.0679233,VALID,18.772,VALID,102,VALID,0.736579,
1999-10-13, 02:27:00,VALID,0,VALID,99.5984,VALID,-0.0849042,VALID,18.7757,VALID,89,VALID,0.684544,
1999-10-13, 02:28:00,VALID,0,VALID,99.6353,VALID,-0.0849042,VALID,18.799,VALID,89,VALID,0.591427,
1999-10-13, 02:29:00,VALID,0,VALID,99.6188,VALID,-0.101885,VALID,18.7891,VALID,86,VALID,0.144866,
1999-10-13, 02:30:00,VALID,0,VALID,99.6289,VALID,-0.0849042,VALID,18.7891,VALID,101,VALID,0.357718,
1999-10-13, 02:31:00,VALID,0,VALID,99.6671,VALID,-0.0849042,VALID,18.8112,VALID,97,VALID,0.747768,
1999-10-13, 02:32:00,VALID,0,VALID,99.6518,VALID,-0.0169808,VALID,18.8135,VALID,150,VALID,0.319227,
1999-10-13, 02:33:00,VALID,0,VALID,99.6099,VALID,0.0339617,VALID,18.7775,VALID,324,VALID,0.277755,
1999-10-13, 02:34:01,VALID,0,VALID,99.5984,VALID,0,VALID,18.7842,VALID,10,VALID,0.392756,
1999-10-13, 02:35:00,VALID,0,VALID,99.615,VALID,0,VALID,18.781,VALID,106,VALID,0.989383,
1999-10-13, 02:36:00,VALID,0,VALID,99.6925,VALID,0.0169808,VALID,18.8262,VALID,138,VALID,0.472551,
1999-10-13, 02:37:00,VALID,0,VALID,99.6518,VALID,0,VALID,18.8195,VALID,130,VALID,0.464433,
1999-10-13, 02:38:00,VALID,0,VALID,99.6226,VALID,0.0169808,VALID,18.7937,VALID,100,VALID,1.08746,
1999-10-13, 02:39:00,VALID,0,VALID,99.6569,VALID,0.0169808,VALID,18.8001,VALID,98,VALID,1.5074,
1999-10-13, 02:40:00,VALID,0,VALID,99.6696,VALID,0,VALID,18.8034,VALID,102,VALID,1.2114,
1999-10-13, 02:41:00,VALID,0,VALID,99.6518,VALID,0.0339617,VALID,18.7869,VALID,68,VALID,0.850477,
1999-10-13, 02:42:00,VALID,0,VALID,99.5628,VALID,0.0339617,VALID,18.7553,VALID,55,VALID,0.956931,
1999-10-13, 02:43:00,VALID,0,VALID,99.5717,VALID,0.0339617,VALID,18.7223,VALID,83,VALID,1.46915,
1999-10-13, 02:44:00,VALID,0,VALID,99.6111,VALID,0.0169808,VALID,18.7126,VALID,96,VALID,1.71829,
1999-10-13, 02:45:00,VALID,0,VALID,99.6353,VALID,0.0339617,VALID,18.719,VALID,95,VALID,1.20724,
1999-10-13, 02:46:00,VALID,0,VALID,99.6646,VALID,0,VALID,18.7285,VALID,94,VALID,1.52384,
1999-10-13, 02:47:00,VALID,0,VALID,99.6213,VALID,0.0169808,VALID,18.6999,VALID,98,VALID,1.56208,
1999-10-13, 02:48:00,VALID,0,VALID,99.6569,VALID,0.0169808,VALID,18.7061,VALID,97,VALID,1.19468,
1999-10-13, 02:49:00,VALID,0,VALID,99.6925,VALID,0.0169808,VALID,18.7227,VALID,118,VALID,0.932813,
1999-10-13, 02:50:00,VALID,0,VALID,99.7078,VALID,0.0169808,VALID,18.729,VALID,93,VALID,1.37453,
1999-10-13, 02:51:00,VALID,0,VALID,99.7421,VALID,0.0509425,VALID,18.7387,VALID,97,VALID,1.80759,
1999-10-13, 02:52:00,VALID,0,VALID,99.7103,VALID,0.0509425,VALID,18.7225,VALID,82,VALID,1.66688,
1999-10-13, 02:53:00,VALID,0,VALID,99.6518,VALID,0.0169808,VALID,18.6934,VALID,108,VALID,1.37479,
1999-10-13, 02:54:00,VALID,0,VALID,99.6378,VALID,0.0509425,VALID,18.6574,VALID,93,VALID,1.89299,
1999-10-13, 02:55:01,VALID,0,VALID,99.615,VALID,0.0339617,VALID,18.6093,VALID,88,VALID,1.90044,
1999-10-13, 02:56:00,VALID,0,VALID,99.6137,VALID,0.0339617,VALID,18.5539,VALID,94,VALID,2.18708,
1999-10-13, 02:57:00,VALID,0,VALID,99.7014,VALID,0.0169808,VALID,18.5705,VALID,84,VALID,1.43914,
1999-10-13, 02:58:00,VALID,0,VALID,99.6544,VALID,0.0509425,VALID,18.5283,VALID,56,VALID,1.49653,
1999-10-13, 02:59:00,VALID,0,VALID,99.7141,VALID,0.0339617,VALID,18.5019,VALID,91,VALID,2.09519,
1999-10-13, 03:00:00,VALID,0,VALID,99.7205,VALID,0.0679233,VALID,18.4791,VALID,96,VALID,2.36167,
1999-10-13, 03:01:00,VALID,0,VALID,99.7078,VALID,0.0169808,VALID,18.4664,VALID,92,VALID,2.20681,
1999-10-13, 03:02:00,VALID,0,VALID,99.7192,VALID,0.0509425,VALID,18.4636,VALID,97,VALID,1.79227,
1999-10-13, 03:03:00,VALID,0,VALID,99.6696,VALID,0.0679233,VALID,18.4149,VALID,78,VALID,1.66366,
1999-10-13, 03:04:00,VALID,0,VALID,99.7065,VALID,0.0849042,VALID,18.4246,VALID,100,VALID,1.68176,
1999-10-13, 03:05:00,VALID,0,VALID,99.7765,VALID,0.101885,VALID,18.4569,VALID,40,VALID,1.08409,
1999-10-13, 03:06:00,VALID,0,VALID,99.7065,VALID,0.101885,VALID,18.4447,VALID,3,VALID,1.27544,
1999-10-13, 03:07:01,VALID,0,VALID,99.6747,VALID,0.101885,VALID,18.3989,VALID,89,VALID,2.8239,
1999-10-13, 03:08:00,VALID,0,VALID,99.6811,VALID,0.0849042,VALID,18.4086,VALID,148,VALID,1.92483,
1999-10-13, 03:09:00,VALID,0,VALID,99.6442,VALID,0.0849042,VALID,18.416,VALID,125,VALID,0.998884,
1999-10-13, 03:10:00,VALID,0,VALID,99.6747,VALID,0.101885,VALID,18.4059,VALID,102,VALID,1.01894,
1999-10-13, 03:11:00,VALID,0,VALID,99.7205,VALID,0.0509425,VALID,18.4193,VALID,88,VALID,0.702679,
1999-10-13, 03:12:00,VALID,0,VALID,99.7663,VALID,0.101885,VALID,18.4352,VALID,102,VALID,1.04926,
1999-10-13, 03:13:00,VALID,0,VALID,99.7892,VALID,0.0509425,VALID,18.4546,VALID,95,VALID,1.24157,
1999-10-13, 03:14:00,VALID,0,VALID,99.7536,VALID,0.0679233,VALID,18.4477,VALID,110,VALID,1.18655,
1999-10-13, 03:15:00,VALID,0,VALID,99.7383,VALID,0.0849042,VALID,18.4218,VALID,96,VALID,1.58433,
1999-10-13, 03:16:00,VALID,0,VALID,99.7561,VALID,0.0509425,VALID,18.4283,VALID,98,VALID,1.6516,
1999-10-13, 03:17:00,VALID,0,VALID,99.7866,VALID,0.0169808,VALID,18.4518,VALID,97,VALID,2.04256,
1999-10-13, 03:18:01,VALID,0,VALID,99.7752,VALID,-0.0679233,VALID,18.4491,VALID,97,VALID,1.74175,
1999-10-13, 03:19:00,VALID,0,VALID,99.7917,VALID,-0.0679233,VALID,18.4622,VALID,38,VALID,0.713816,
1999-10-13, 03:20:00,VALID,0,VALID,99.7358,VALID,-0.0679233,VALID,18.4528,VALID,84,VALID,0.724494,
1999-10-13, 03:21:00,VALID,0,VALID,99.7358,VALID,-0.0509425,VALID,18.4463,VALID,99,VALID,1.35634,
1999-10-13, 03:22:00,VALID,0,VALID,99.7345,VALID,-0.0339617,VALID,18.4461,VALID,137,VALID,0.235777,
1999-10-13, 03:23:00,VALID,0,VALID,99.6824,VALID,-0.0339617,VALID,18.417,VALID,109,VALID,1.01963,
1999-10-13, 03:24:00,VALID,0.2,VALID,99.6849,VALID,-0.0339617,VALID,18.4172,VALID,42,VALID,0.747013,
1999-10-13, 03:25:00,VALID,0,VALID,99.7154,VALID,-0.0339617,VALID,18.4271,VALID,88,VALID,1.5366,
1999-10-13, 03:26:00,VALID,0,VALID,99.6862,VALID,-0.0169808,VALID,18.4137,VALID,92,VALID,2.1246,
1999-10-13, 03:27:00,VALID,0,VALID,99.6735,VALID,-0.0169808,VALID,18.3906,VALID,147,VALID,1.21474,
1999-10-13, 03:28:00,VALID,0,VALID,99.6696,VALID,-0.0169808,VALID,18.4073,VALID,94,VALID,1.50718,
1999-10-13, 03:29:01,VALID,0,VALID,99.6582,VALID,-0.0339617,VALID,18.4107,VALID,32,VALID,0.775223,
1999-10-13, 03:30:00,VALID,0,VALID,99.6251,VALID,-0.0339617,VALID,18.3976,VALID,76,VALID,0.676136,
1999-10-13, 03:31:00,VALID,0,VALID,99.5794,VALID,-0.0679233,VALID,18.3876,VALID,54,VALID,0.69308,
1999-10-13, 03:32:00,VALID,0,VALID,99.5781,VALID,-0.0509425,VALID,18.3682,VALID,95,VALID,0.501085,
1999-10-13, 03:33:00,VALID,0,VALID,99.62,VALID,0,VALID,18.3943,VALID,103,VALID,0.807155,
1999-10-13, 03:34:00,VALID,0,VALID,99.5781,VALID,-0.0509425,VALID,18.3816,VALID,97,VALID,2.33262,
1999-10-13, 03:35:00,VALID,0,VALID,99.6175,VALID,-0.0509425,VALID,18.4077,VALID,97,VALID,1.43976,
1999-10-13, 03:36:00,VALID,0,VALID,99.6099,VALID,-0.0169808,VALID,18.3906,VALID,107,VALID,1.64295,
1999-10-13, 03:37:00,VALID,0,VALID,99.5361,VALID,0.0509425,VALID,18.3835,VALID,246,VALID,0.899054,
1999-10-13, 03:38:01,VALID,0,VALID,99.4611,VALID,0.0849042,VALID,18.3544,VALID,133,VALID,0.730469,
1999-10-13, 03:39:00,VALID,0,VALID,99.517,VALID,0.0509425,VALID,18.3638,VALID,127,VALID,1.16303,
1999-10-13, 03:40:01,VALID,0,VALID,99.4458,VALID,0.101885,VALID,18.3442,VALID,136,VALID,1.14453,
1999-10-13, 03:41:00,VALID,0,VALID,99.4725,VALID,0.0339617,VALID,18.3481,VALID,77,VALID,1.32422,
1999-10-13, 03:42:00,VALID,0,VALID,99.4891,VALID,0.0679233,VALID,18.3382,VALID,345,VALID,0.65004,
1999-10-13, 03:43:00,VALID,0,VALID,99.5183,VALID,0.0509425,VALID,18.3352,VALID,97,VALID,2.1847,
1999-10-13, 03:44:00,VALID,0,VALID,99.573,VALID,0.101885,VALID,18.3479,VALID,42,VALID,1.40165,
1999-10-13, 03:45:00,VALID,0.2,VALID,99.5476,VALID,0.0679233,VALID,18.335,VALID,7,VALID,0.878495,
1999-10-13, 03:46:00,VALID,0,VALID,99.5323,VALID,0.101885,VALID,18.3151,VALID,171,VALID,0.667869,
1999-10-13, 03:47:00,VALID,0,VALID,99.573,VALID,0,VALID,18.3294,VALID,91,VALID,2.23416,
1999-10-13, 03:48:00,VALID,0,VALID,99.6556,VALID,0,VALID,18.3585,VALID,101,VALID,2.0228,
1999-10-13, 03:49:00,VALID,0,VALID,99.6556,VALID,-0.0339617,VALID,18.359,VALID,99,VALID,2.04643,
1999-10-13, 03:50:01,VALID,0,VALID,99.6442,VALID,-0.0169808,VALID,18.3525,VALID,86,VALID,2.1759,
1999-10-13, 03:51:01,VALID,0,VALID,99.6188,VALID,-0.0169808,VALID,18.3428,VALID,85,VALID,1.72187,
1999-10-13, 03:52:00,VALID,0,VALID,99.6086,VALID,-0.0169808,VALID,18.3204,VALID,87,VALID,1.28147,
1999-10-13, 03:53:00,VALID,0,VALID,99.6696,VALID,0,VALID,18.3396,VALID,95,VALID,1.74897,
1999-10-13, 03:54:00,VALID,0,VALID,99.6874,VALID,0,VALID,18.3555,VALID,88,VALID,2.13542,
1999-10-13, 03:55:00,VALID,0,VALID,99.6633,VALID,-0.0169808,VALID,18.3359,VALID,99,VALID,2.35938,
1999-10-13, 03:56:00,VALID,0,VALID,99.6951,VALID,-0.0339617,VALID,18.3357,VALID,89,VALID,2.06334,
1999-10-13, 03:57:00,VALID,0,VALID,99.6671,VALID,-0.0339617,VALID,18.3359,VALID,100,VALID,1.99959,
1999-10-13, 03:58:00,VALID,0,VALID,99.6595,VALID,-0.0169808,VALID,18.3107,VALID,91,VALID,1.75955,
1999-10-13, 03:59:00,VALID,0,VALID,99.6607,VALID,-0.0169808,VALID,18.307,VALID,84,VALID,1.92866,
1999-10-13, 04:00:00,VALID,0,VALID,99.6328,VALID,0,VALID,18.2913,VALID,41,VALID,0.669347,
1999-10-13, 04:01:01,VALID,0,VALID,99.634,VALID,-0.0339617,VALID,18.2879,VALID,106,VALID,0.634115,
1999-10-13, 04:02:01,VALID,0,VALID,99.6607,VALID,-0.0339617,VALID,18.2976,VALID,87,VALID,0.901843,
1999-10-13, 04:03:00,VALID,0,VALID,99.6862,VALID,-0.0169808,VALID,18.2976,VALID,128,VALID,0.896635,
1999-10-13, 04:04:00,VALID,0,VALID,99.7052,VALID,-0.0339617,VALID,18.307,VALID,137,VALID,1.08272,
1999-10-13, 04:05:00,VALID,0,VALID,99.723,VALID,0,VALID,18.31,VALID,94,VALID,1.64597,
1999-10-13, 04:06:00,VALID,0,VALID,99.6226,VALID,0,VALID,18.2814,VALID,100,VALID,1.94511,
1999-10-13, 04:07:00,VALID,0,VALID,99.6022,VALID,0.0339617,VALID,18.2846,VALID,91,VALID,1.63091,